Temperature
21 19 19 19 20 21 22 22 21 21 22 22 21 20 20 20 20 20 20 20 20 20 20 20 20 20 20 20 19 19 19 19 19 19 18 18 18 18 17 17 17 17 17 17
19 19 20 20 20 21 21 21 21 21 22 22 20 20 20 20 20 20 20 20 20 20 20 20 20 20 20 20 20 19 19 19 19 18 18 18 18 18 17 17 17 17 17 17
20 21 21 21 21 21 21 21 21 21 21 21 21 20 20 20 20 20 20 20 20 20 20 20 20 20 20 19 19 19 19 19 18 18 18 18 17 17 17 17 17 17 17 17
20 20 21 22 21 21 21 21 21 21 20 19 20 19 20 19 19 19 19 20 20 20 20 20 20 20 19 19 19 19 19 18 18 18 18 17 17 17 17 17 17 17 17 17
21 21 22 22 22 21 21 21 21 20 19 19 19 19 18 18 19 18 18 19 20 20 20 21 20 20 20 20 19 19 18 18 18 18 17 17 17 17 17 17 17 17 17 17
21 21 22 22 22 22 21 20 19 17 17 18 19 19 18 17 18 19 19 19 20 20 20 20 20 20 20 20 19 19 18 18 18 18 17 17 17 17 17 17 17 17 17 17
21 21 21 22 22 21 20 19 18 19 17 18 18 18 18 18 18 18 18 19 19 20 20 20 20 20 20 20 19 19 18 18 18 18 18 17 17 17 17 17 17 17 17 17
20 20 21 21 22 21 20 19 18 19 18 17 18 18 18 18 18 19 19 19 19 19 19 20 20 20 20 19 19 19 18 18 18 18 18 17 17 17 17 17 17 17 17 17
19 20 21 22 21 21 20 18 18 17 17 17 17 17 18 18 18 18 18 18 18 19 19 19 19 19 19 19 19 18 18 18 18 17 17 17 17 17 17 17 17 17 17 16
19 20 21 21 21 20 19 17 15 16 17 18 18 18 18 18 18 17 17 17 18 18 19 19 19 19 19 19 18 18 18 18 17 17 17 17 17 16 16 16 16 17 16 16
19 19 20 20 21 20 19 18 15 14 15 16 17 17 18 17 17 17 17 17 18 18 19 19 19 19 19 18 18 18 18 17 17 17 17 17 17 17 16 16 16 16 16 16
17 16 17 19 20 20 19 18 16 17 16 15 16 17 18 17 16 16 17 17 18 18 18 19 19 19 18 18 18 18 17 17 17 17 17 17 17 16 16 16 16 16 16 16
17 16 17 19 19 19 19 18 16 14 13 14 15 17 17 16 16 17 17 17 18 18 18 18 19 18 18 18 18 18 17 17 17 17 17 17 16 16 16 16 16 16 16 16
17 15 17 18 18 18 19 18 16 15 15 15 16 17 17 16 16 16 17 17 18 18 18 18 18 18 18 18 18 17 17 17 17 17 16 16 16 16 16 16 16 16 15 15
16 16 17 17 18 18 19 18 17 17 16 16 17 16 17 16 16 16 16 17 17 17 18 18 18 18 17 17 17 17 17 16 16 16 16 16 16 16 16 15 15 15 15 15
14 16 17 18 18 18 18 18 18 17 17 17 17 16 16 16 16 16 16 16 16 17 17 17 17 18 17 17 17 17 16 16 16 16 16 16 15 15 15 15 15 15 15 15
14 15 16 16 17 18 17 18 18 17 17 17 17 16 15 15 15 15 16 16 17 17 17 17 17 17 17 17 17 16 16 16 15 15 15 15 15 15 15 15 15 14 14 14
14 13 13 14 17 17 17 17 17 17 17 16 16 15 15 15 16 16 17 17 17 17 17 17 17 17 17 16 16 16 16 15 15 15 15 15 14 14 14 14 14 14 14 14
12 13 13 13 15 16 17 17 17 17 17 16 15 15 15 15 15 15 16 17 17 17 17 17 16 16 16 16 15 15 15 15 15 15 14 14 14 14 14 14 14 14 14 14
12 12 12 13 15 16 16 17 17 17 16 15 15 14 14 15 14 14 17 17 17 16 16 16 16 16 15 15 15 15 15 15 15 14 14 14 14 14 14 13 13 13 13 13
13 12 13 13 14 15 15 16 17 17 16 15 15 15 15 15 15 16 17 17 17 16 16 16 16 15 15 15 15 15 14 14 14 14 14 14 14 13 13 13 13 13 13 13
13 13 12 12 14 15 15 15 15 15 15 16 16 16 15 16 16 16 16 16 16 16 16 15 15 15 15 14 14 14 14 14 14 13 13 13 13 13 13 13 13 12 12 13
12 12 11 12 13 14 14 15 16 16 16 16 16 16 16 16 16 16 16 16 16 15 15 15 15 14 14 14 14 14 13 13 13 13 13 13 12 12 12 12 12 12 12 12
12 11 11 12 13 14 15 16 16 17 17 17 17 17 16 16 16 15 15 15 15 15 15 14 14 14 14 13 13 13 13 13 12 12 12 12 12 12 12 12 12 12 12 12
12 11 11 12 13 14 15 16 16 16 16 16 16 16 16 16 15 15 15 15 15 14 14 14 14 14 13 13 13 12 12 12 12 12 12 12 12 12 12 11 11 11 11 11
10 11 12 12 13 13 15 16 16 16 16 16 16 16 15 15 15 15 15 14 14 14 14 13 13 13 13 12 12 12 12 12 12 12 12 11 11 11 11 11 11 11 11 11
Wind_Speed
3 4 3 7 8 6 4 2 3 5 2 1 2 2 3 4 4 4 4 5 5 5 4 5 6 6 6 5 5 5 5 4 3 2 2 1 1 1 1 1 1 1 0 0
5 3 7 5 5 4 3 2 3 4 1 2 1 1 2 4 6 7 7 6 6 4 3 5 5 6 7 6 6 5 5 4 4 3 2 2 1 1 1 1 1 1 1 1
6 6 3 5 4 4 4 5 5 4 3 3 2 3 2 1 0 1 3 4 4 6 5 5 5 6 6 6 6 6 5 4 3 3 2 2 2 1 1 1 2 2 2 1
5 5 3 3 4 6 5 6 6 4 2 2 1 1 4 2 1 3 3 4 5 5 5 5 5 5 6 6 5 5 5 4 4 4 3 3 2 2 2 2 2 2 2 1
4 3 3 4 6 7 6 2 3 3 4 1 2 2 5 2 3 6 6 6 6 6 6 6 6 6 5 5 5 5 4 4 3 4 4 3 2 2 1 1 2 2 2 2
5 3 3 5 2 4 4 5 6 6 5 1 2 3 4 3 6 6 6 6 5 4 4 4 4 4 3 3 4 4 4 3 3 3 3 4 3 2 1 1 1 2 2 2
4 4 3 2 1 3 4 6 4 4 3 4 2 2 6 5 5 6 6 6 4 3 4 3 3 3 3 4 4 4 4 4 3 3 3 3 4 4 3 3 2 2 2 2
1 5 3 2 5 4 3 8 7 5 5 4 2 3 5 4 3 3 2 3 3 3 4 4 4 4 4 4 4 4 4 3 3 3 3 3 3 3 3 3 2 2 3 3
5 5 4 2 1 7 5 3 5 7 3 1 4 5 6 2 1 0 1 3 3 3 3 3 3 3 3 3 3 4 4 3 3 3 2 2 2 2 3 2 2 2 2 2
7 3 4 3 5 5 5 8 6 6 5 2 4 4 4 4 3 1 1 2 3 3 2 2 3 3 3 3 3 3 3 3 2 2 2 2 2 2 2 1 2 2 1 1
5 4 4 4 2 1 4 5 6 5 5 6 3 6 4 6 5 4 4 3 3 3 3 3 3 3 3 2 3 2 2 1 1 1 2 2 2 1 1 2 2 2 1 1
4 5 1 4 3 1 4 5 6 5 3 4 4 6 5 4 4 4 3 3 2 2 2 2 2 2 2 2 1 1 1 1 1 1 2 2 2 1 1 1 1 1 1 1
6 6 3 4 5 4 4 3 4 6 5 5 4 6 3 1 1 2 3 3 2 2 2 2 2 2 2 1 1 1 0 1 1 1 1 1 1 1 1 1 1 1 1 1
6 5 6 8 7 3 1 1 4 5 4 5 7 6 4 2 2 1 2 3 3 3 2 2 1 1 1 1 1 1 0 1 0 0 0 1 1 2 2 1 0 1 1 2
5 4 3 2 2 3 2 3 4 5 7 7 7 7 8 6 5 4 3 3 3 2 2 2 2 1 0 1 1 1 0 0 1 1 1 2 2 1 1 0 0 1 1 1
4 4 2 1 1 1 1 3 3 3 3 5 3 6 5 2 2 3 4 4 3 3 2 2 1 1 0 0 0 0 0 0 1 1 1 1 1 0 1 1 1 1 1 0
3 4 3 1 2 2 3 4 3 2 2 5 6 6 3 3 4 5 4 4 4 3 2 1 1 1 1 1 1 1 1 1 1 0 0 0 0 0 1 1 1 1 1 0
5 4 4 2 3 2 6 3 2 3 1 3 4 4 6 5 3 1 2 4 3 2 2 2 2 1 1 1 1 1 1 1 1 0 0 0 0 0 1 1 1 1 1 0
4 6 4 4 2 3 5 1 1 2 3 1 3 3 3 4 4 2 1 3 4 4 3 3 2 1 1 1 1 1 0 0 0 0 1 1 1 1 1 1 1 1 0 0
6 5 5 4 4 5 5 4 2 2 3 2 3 4 4 5 2 4 3 3 3 2 2 1 1 1 1 1 0 1 0 0 1 2 2 1 1 1 2 2 2 1 0 1
3 4 3 3 3 5 5 5 1 3 5 2 3 4 5 5 5 3 3 3 4 3 2 2 2 2 2 1 1 1 1 2 3 1 1 1 1 2 2 2 1 1 0 0
4 4 3 3 2 6 3 1 3 5 2 2 3 4 4 3 2 2 3 3 3 2 2 2 2 1 1 1 1 1 3 3 2 1 0 1 1 1 1 1 1 1 1 0
4 5 5 6 6 5 3 3 4 3 2 2 3 3 4 3 3 2 2 2 2 2 2 2 2 1 1 1 2 2 3 2 1 1 1 1 1 1 1 1 1 0 0 1
2 2 3 2 4 4 4 3 1 1 2 2 3 3 4 4 4 3 2 2 2 2 2 2 2 2 2 2 2 3 3 1 1 1 1 1 1 0 1 1 1 1 1 2
3 3 2 2 4 3 4 3 2 1 0 1 1 2 4 4 4 4 3 3 3 2 2 3 3 4 4 3 3 2 2 2 1 1 1 1 1 1 1 1 1 2 3 4
3 5 5 5 5 4 5 4 2 1 1 2 1 0 0 3 4 3 3 3 3 3 2 2 3 3 3 2 2 2 1 2 2 2 2 1 1 1 1 1 1 2 2 3
Wind_Direction
74 87 196 211 194 185 170 185 259 269 274 109 215 226 224 186 168 167 170 182 183 189 184 166 168 163 158 157 160 168 167 163 147 139 144 146 208 275 313 282 279 277 269 136
48 260 231 195 173 165 174 218 257 290 337 153 189 288 248 194 192 186 189 194 196 183 166 166 164 163 169 175 175 176 178 174 169 172 170 169 167 217 252 294 320 308 279 205
190 236 190 159 176 184 213 200 219 234 352 34 93 355 331 287 194 164 193 198 199 192 187 185 176 178 175 181 185 186 181 174 168 149 116 91 68 38 3 317 304 293 275 238
225 253 189 183 214 177 243 223 198 187 121 295 75 258 287 273 265 234 227 218 214 202 191 187 181 181 189 193 184 179 171 169 170 156 152 155 173 204 229 244 259 288 282 255
241 216 182 216 228 176 211 199 154 155 146 76 19 140 290 344 265 248 233 224 222 204 188 189 191 189 189 184 177 175 163 168 169 167 168 167 190 218 247 279 291 294 299 281
243 238 204 216 232 175 155 72 59 54 77 61 264 161 275 249 235 240 226 219 221 202 185 184 175 162 168 166 163 163 158 165 162 165 169 176 188 194 201 263 280 290 293 292
319 311 277 183 59 31 94 94 42 3 14 252 279 175 246 250 243 230 227 221 209 177 169 165 150 155 162 165 167 164 162 168 168 171 183 194 197 195 205 223 233 258 280 277
204 296 278 206 177 176 173 143 157 189 213 269 328 234 254 261 261 249 228 206 170 165 169 167 166 164 167 171 169 170 168 168 179 182 196 202 200 201 217 219 222 229 241 253
179 254 296 285 176 139 135 152 159 133 129 95 287 292 304 322 343 12 134 135 160 176 169 166 162 161 161 165 167 168 168 173 192 202 199 195 200 202 212 222 224 233 239 238
160 215 302 312 63 42 120 137 97 114 143 219 288 278 258 273 261 240 182 177 185 169 156 150 155 152 150 162 162 151 166 186 207 204 203 203 209 223 224 211 218 228 228 211
138 157 314 17 86 166 86 88 95 103 138 153 221 266 233 229 218 203 212 210 201 170 161 164 164 158 142 134 151 150 158 176 216 233 214 201 211 215 206 225 232 214 197 184
141 127 226 280 285 226 134 142 139 143 191 163 172 259 285 235 207 188 199 201 193 160 149 139 135 131 120 122 130 129 162 195 223 233 218 219 221 201 199 230 235 191 180 182
134 115 90 350 346 12 77 108 120 119 117 151 170 254 324 54 131 159 160 155 148 139 115 101 106 115 114 102 95 81 211 235 247 208 203 217 222 216 225 240 239 199 176 150
117 109 160 193 215 203 182 151 145 129 147 188 213 233 274 263 226 193 154 151 147 148 134 124 115 114 110 96 108 100 321 249 207 156 177 251 253 243 253 258 231 187 164 148
99 124 165 202 208 172 188 207 179 177 182 189 218 214 236 225 214 197 163 144 137 138 144 159 160 158 112 55 66 91 93 267 186 166 212 248 261 265 302 334 199 170 159 178
76 124 119 43 8 113 348 275 211 207 193 199 210 249 241 200 153 165 166 161 168 193 205 199 174 151 158 194 76 145 269 348 161 191 223 229 224 181 165 180 157 125 100 53
79 119 119 228 317 41 297 260 204 195 193 177 207 230 170 160 180 192 194 190 192 207 214 196 193 230 263 264 241 228 211 129 99 132 233 173 146 184 202 177 123 120 125 122
125 110 122 124 88 219 252 276 173 160 232 208 210 204 176 178 177 171 187 191 199 198 207 211 209 237 291 302 306 295 81 109 126 36 335 339 125 178 135 110 118 141 152 181
124 128 116 120 150 281 301 323 167 176 279 267 203 174 130 109 77 9 226 185 194 197 197 208 210 198 226 282 318 51 55 108 114 246 274 289 222 181 148 146 191 206 157 322
62 88 113 124 148 223 253 288 290 122 284 295 148 151 146 120 142 245 216 178 187 194 185 175 150 131 169 256 102 102 222 185 243 248 254 267 236 199 203 212 215 214 184 235
61 58 103 145 190 256 265 289 323 167 243 235 165 170 171 183 206 212 180 181 188 195 204 165 149 177 217 215 130 122 271 258 256 243 267 306 271 219 207 211 201 166 160 73
157 144 161 139 172 251 287 53 172 221 255 180 174 177 179 195 192 175 181 190 190 189 197 171 166 226 261 173 156 212 267 271 273 232 245 285 278 257 217 183 207 152 139 114
185 185 183 185 209 250 258 234 253 205 194 197 178 179 167 177 200 195 197 203 217 217 215 190 174 213 270 225 193 218 260 278 275 244 248 265 271 277 215 188 203 221 181 202
265 132 136 245 272 282 288 285 274 213 212 206 183 169 165 176 187 187 194 208 223 230 220 195 177 205 246 255 242 236 247 234 218 236 253 239 192 228 303 237 216 212 220 228
225 159 150 252 288 326 312 293 276 278 340 113 144 161 165 163 177 185 198 220 232 235 221 195 200 219 236 247 261 263 240 200 211 237 250 245 220 217 238 272 253 229 230 220
206 176 172 216 225 205 248 266 258 208 225 199 160 129 199 175 185 187 202 225 226 230 219 209 219 234 252 255 269 277 253 210 198 218 235 235 227 228 224 252 310 306 258 252
Height
1490 1497 1502 1499 1498 1499 1501 1505 1508 1503 1496 1498 1500 1500 1497 1496 1497 1499 1501 1502 1502 1503 1506 1508 1510 1512 1514 1516 1518 1519 1520 1521 1522 1522 1523 1523 1524 1524 1525 1525 1525 1525 1525 1526
1496 1499 1492 1492 1494 1497 1500 1506 1507 1501 1495 1498 1501 1501 1497 1496 1496 1497 1498 1500 1501 1502 1504 1506 1508 1510 1513 1514 1516 1518 1519 1520 1521 1521 1522 1523 1523 1523 1524 1524 1524 1524 1524 1524
1496 1492 1487 1491 1494 1498 1500 1504 1503 1503 1498 1498 1501 1506 1501 1498 1497 1498 1500 1500 1501 1502 1503 1505 1507 1509 1511 1513 1514 1516 1518 1519 1520 1521 1522 1522 1523 1523 1523 1523 1522 1523 1523 1523
1492 1487 1487 1490 1493 1495 1502 1494 1496 1499 1507 1513 1507 1520 1507 1501 1500 1498 1499 1499 1500 1501 1503 1504 1506 1508 1510 1512 1514 1516 1517 1518 1519 1520 1521 1521 1521 1521 1521 1521 1521 1521 1521 1522
1489 1485 1486 1489 1488 1489 1492 1489 1494 1498 1506 1514 1512 1519 1514 1503 1503 1499 1497 1496 1497 1499 1501 1503 1504 1506 1509 1511 1513 1515 1516 1517 1518 1519 1519 1520 1520 1520 1521 1521 1521 1520 1520 1521
1485 1482 1482 1483 1481 1483 1486 1492 1499 1507 1513 1524 1517 1520 1518 1508 1501 1496 1494 1494 1495 1497 1499 1501 1503 1505 1507 1509 1511 1513 1514 1515 1516 1517 1518 1519 1519 1519 1519 1519 1519 1520 1520 1520
1488 1484 1480 1479 1483 1485 1489 1504 1521 1523 1531 1528 1516 1517 1515 1499 1494 1493 1491 1492 1494 1496 1498 1500 1502 1504 1506 1508 1509 1511 1512 1513 1514 1515 1516 1517 1517 1518 1518 1518 1518 1518 1518 1518
1498 1498 1482 1478 1481 1487 1491 1499 1520 1529 1532 1528 1517 1518 1506 1494 1492 1491 1491 1491 1493 1495 1497 1499 1500 1502 1504 1506 1508 1509 1510 1511 1512 1513 1514 1514 1515 1515 1516 1517 1517 1517 1517 1517
1498 1496 1479 1477 1476 1481 1492 1500 1500 1517 1523 1529 1523 1513 1500 1492 1491 1490 1490 1491 1493 1494 1496 1498 1500 1502 1503 1505 1506 1508 1509 1509 1511 1511 1512 1512 1512 1512 1513 1514 1515 1515 1515 1516
1485 1492 1482 1478 1478 1482 1486 1495 1507 1517 1528 1532 1523 1517 1510 1497 1493 1491 1491 1491 1491 1494 1496 1497 1499 1501 1502 1504 1505 1506 1508 1508 1509 1510 1510 1510 1511 1511 1512 1512 1513 1513 1513 1514
1481 1492 1489 1484 1486 1489 1491 1497 1507 1518 1519 1529 1532 1520 1495 1493 1491 1491 1490 1491 1491 1493 1494 1496 1498 1499 1502 1503 1505 1506 1506 1506 1507 1508 1508 1509 1509 1509 1509 1510 1510 1510 1511 1511
1482 1492 1499 1491 1483 1482 1485 1493 1502 1512 1519 1523 1526 1518 1489 1488 1488 1489 1490 1491 1492 1493 1494 1495 1497 1499 1500 1502 1503 1504 1505 1505 1506 1506 1506 1507 1507 1507 1507 1507 1508 1508 1509 1509
1481 1493 1505 1502 1497 1488 1488 1492 1497 1506 1516 1524 1524 1512 1489 1488 1488 1489 1490 1490 1492 1493 1494 1496 1497 1498 1499 1500 1501 1502 1503 1504 1504 1504 1504 1504 1505 1505 1505 1505 1506 1506 1507 1508
1475 1491 1499 1505 1500 1492 1491 1492 1495 1502 1514 1517 1512 1502 1493 1490 1490 1489 1490 1490 1492 1493 1494 1496 1497 1498 1499 1500 1500 1501 1502 1502 1502 1502 1503 1502 1503 1503 1503 1503 1503 1504 1505 1506
1476 1489 1489 1489 1486 1487 1488 1489 1492 1495 1499 1504 1499 1498 1491 1489 1488 1488 1489 1491 1492 1493 1494 1495 1496 1497 1498 1498 1499 1500 1500 1501 1501 1501 1501 1501 1501 1501 1501 1502 1502 1503 1503 1504
1479 1487 1488 1490 1487 1486 1489 1487 1488 1490 1492 1493 1493 1493 1486 1486 1487 1488 1489 1490 1491 1493 1494 1495 1496 1496 1497 1497 1498 1498 1499 1499 1499 1500 1500 1500 1500 1500 1500 1500 1501 1501 1501 1502
1484 1488 1495 1498 1491 1488 1496 1488 1487 1487 1487 1489 1492 1488 1485 1486 1486 1487 1488 1489 1490 1491 1493 1494 1495 1495 1496 1496 1497 1497 1497 1498 1498 1498 1499 1499 1499 1499 1499 1499 1499 1499 1500 1500
1484 1492 1500 1501 1496 1504 1494 1482 1482 1484 1484 1484 1483 1482 1482 1483 1485 1486 1488 1489 1490 1491 1493 1494 1495 1495 1495 1495 1496 1495 1496 1496 1496 1497 1497 1497 1497 1497 1497 1498 1498 1498 1498 1498
1480 1488 1499 1506 1505 1500 1488 1482 1483 1485 1485 1482 1482 1481 1483 1484 1486 1487 1488 1489 1490 1491 1493 1494 1494 1495 1495 1494 1494 1494 1494 1495 1495 1495 1495 1496 1496 1496 1496 1496 1496 1496 1496 1496
1483 1487 1497 1503 1503 1504 1491 1481 1479 1482 1486 1481 1480 1482 1483 1484 1490 1488 1487 1488 1489 1491 1492 1492 1493 1493 1493 1493 1493 1493 1493 1493 1492 1493 1493 1494 1494 1494 1494 1494 1494 1494 1494 1494
1491 1494 1499 1502 1502 1496 1484 1480 1479 1491 1488 1479 1479 1480 1482 1483 1485 1485 1486 1487 1488 1490 1491 1491 1491 1492 1492 1492 1492 1491 1491 1491 1491 1491 1491 1492 1492 1492 1492 1492 1492 1492 1492 1491
1491 1496 1500 1502 1503 1499 1481 1480 1483 1483 1478 1477 1478 1479 1481 1482 1483 1484 1486 1486 1487 1488 1489 1490 1490 1490 1491 1491 1491 1490 1489 1490 1489 1489 1489 1490 1490 1490 1490 1490 1490 1490 1489 1489
1488 1489 1491 1492 1492 1483 1479 1479 1478 1477 1477 1477 1477 1478 1480 1481 1482 1483 1485 1486 1486 1487 1488 1488 1489 1489 1489 1490 1490 1489 1488 1488 1488 1488 1488 1488 1488 1488 1488 1488 1488 1487 1487 1487
1484 1484 1486 1487 1482 1479 1478 1478 1477 1477 1477 1477 1478 1478 1479 1480 1481 1482 1483 1484 1485 1486 1487 1487 1487 1487 1488 1488 1488 1487 1487 1487 1486 1486 1486 1486 1486 1485 1486 1485 1485 1485 1485 1485
1482 1483 1484 1484 1481 1478 1477 1477 1477 1477 1477 1477 1478 1478 1478 1479 1479 1481 1482 1483 1484 1484 1485 1485 1485 1485 1485 1486 1486 1485 1485 1485 1484 1484 1484 1484 1483 1483 1483 1483 1483 1482 1482 1482
1479 1480 1482 1482 1478 1478 1477 1476 1476 1476 1476 1476 1476 1476 1477 1477 1478 1479 1480 1481 1482 1482 1482 1483 1483 1483 1483 1483 1483 1483 1483 1482 1482 1482 1482 1481 1481 1481 1481 1480 1480 1479 1480 1479